Previsão horária em Allada

Hoje, 14 Junho, Segunda-feira

Tempo Temperatura Precipitação Vento Pressão Humidade
00:00 +27°C° 0 mm 1 m/s 752 mmHg 90%
01:00 +26°C° 0 mm 1 m/s 752 mmHg 90%
02:00 +26°C° 0 mm 1 m/s 751 mmHg 91%
03:00 +26°C° 0 mm 1 m/s 751 mmHg 92%
04:00 +26°C° 0 mm 1 m/s 751 mmHg 91%
05:00 +26°C° 0 mm 1 m/s 752 mmHg 89%
06:00 +27°C° 0 mm 1 m/s 752 mmHg 88%
07:00 +28°C° 0 mm 2 m/s 752 mmHg 78%
08:00 +30°C° 0 mm 2 m/s 753 mmHg 68%
09:00 +33°C° 0 mm 3 m/s 753 mmHg 57%
10:00 +34°C° 0 mm 3 m/s 753 mmHg 53%
11:00 +35°C° 0 mm 3 m/s 752 mmHg 49%
12:00 +37°C° 0 mm 3 m/s 752 mmHg 42%
13:00 +37°C° 0 mm 3 m/s 751 mmHg 43%
14:00 +36°C° 0 mm 3 m/s 751 mmHg 44%
15:00 +36°C° 0 mm 3 m/s 750 mmHg 44%
16:00 +34°C° 0.1 mm 3 m/s 750 mmHg 53%
17:00 +31°C° 0.1 mm 3 m/s 751 mmHg 62%
18:00 +29°C° 0.1 mm 2 m/s 751 mmHg 72%
19:00 +29°C° 0.1 mm 2 m/s 752 mmHg 75%
20:00 +29°C° 0.1 mm 2 m/s 752 mmHg 78%
21:00 +28°C° 0.1 mm 2 m/s 752 mmHg 81%
22:00 +28°C° 0.2 mm 2 m/s 752 mmHg 84%
23:00 +27°C° 0.2 mm 1 m/s 752 mmHg 87%

Amanhã, 15 Junho, Terça-feira

Tempo Temperatura Precipitação Vento Pressão Humidade
00:00 +27°C° 0.2 mm 1 m/s 752 mmHg 89%
01:00 +27°C° 0 mm 1 m/s 751 mmHg 90%
02:00 +26°C° 0 mm 1 m/s 751 mmHg 91%
03:00 +26°C° 0 mm 2 m/s 750 mmHg 91%
04:00 +26°C° 0 mm 2 m/s 751 mmHg 91%
05:00 +26°C° 0 mm 2 m/s 751 mmHg 91%
06:00 +26°C° 0 mm 2 m/s 751 mmHg 91%
07:00 +28°C° 0 mm 2 m/s 752 mmHg 79%
08:00 +30°C° 0 mm 3 m/s 752 mmHg 67%
09:00 +34°C° 0 mm 4 m/s 753 mmHg 55%
10:00 +35°C° 0 mm 4 m/s 752 mmHg 52%
11:00 +36°C° 0 mm 4 m/s 752 mmHg 48%
12:00 +37°C° 0 mm 4 m/s 751 mmHg 44%
13:00 +36°C° 0 mm 4 m/s 751 mmHg 47%
14:00 +35°C° 0 mm 4 m/s 751 mmHg 50%
15:00 +35°C° 0 mm 5 m/s 750 mmHg 53%
16:00 +33°C° 0 mm 5 m/s 750 mmHg 60%
17:00 +32°C° 0 mm 4 m/s 750 mmHg 67%
18:00 +29°C° 0 mm 4 m/s 750 mmHg 74%
19:00 +28°C° 0.5 mm 4 m/s 751 mmHg 78%
20:00 +28°C° 0.5 mm 4 m/s 752 mmHg 82%
21:00 +27°C° 0.5 mm 3 m/s 753 mmHg 87%
22:00 +27°C° 0 mm 3 m/s 753 mmHg 88%
23:00 +27°C° 0 mm 3 m/s 752 mmHg 89%

Depois de amanhã, 16 Junho, Quarta-feira

Tempo Temperatura Precipitação Vento Pressão Humidade
00:00 +27°C° 0 mm 3 m/s 752 mmHg 90%
01:00 +27°C° 0 mm 3 m/s 752 mmHg 91%
02:00 +26°C° 0 mm 2 m/s 751 mmHg 92%
03:00 +26°C° 0 mm 2 m/s 751 mmHg 93%
04:00 +26°C° 0.1 mm 2 m/s 751 mmHg 93%
05:00 +26°C° 0.1 mm 2 m/s 752 mmHg 92%
06:00 +26°C° 0.1 mm 2 m/s 752 mmHg 92%
07:00 +28°C° 0 mm 3 m/s 752 mmHg 84%
08:00 +29°C° 0 mm 3 m/s 753 mmHg 75%
09:00 +30°C° 0 mm 4 m/s 753 mmHg 67%
10:00 +32°C° 0 mm 4 m/s 753 mmHg 64%
11:00 +33°C° 0 mm 5 m/s 752 mmHg 62%
12:00 +33°C° 0 mm 5 m/s 752 mmHg 60%
13:00 +33°C° 0 mm 5 m/s 751 mmHg 59%
14:00 +33°C° 0 mm 5 m/s 751 mmHg 58%
15:00 +34°C° 0 mm 5 m/s 751 mmHg 57%
16:00 +32°C° 0 mm 5 m/s 751 mmHg 63%
17:00 +30°C° 0 mm 5 m/s 751 mmHg 68%
18:00 +29°C° 0 mm 4 m/s 751 mmHg 74%
19:00 +28°C° 0 mm 4 m/s 752 mmHg 76%
20:00 +28°C° 0 mm 4 m/s 752 mmHg 79%
21:00 +28°C° 0 mm 4 m/s 753 mmHg 81%
22:00 +28°C° 0 mm 3 m/s 753 mmHg 81%
23:00 +28°C° 0 mm 3 m/s 753 mmHg 80%

17 Junho, Quinta-feira

Tempo Temperatura Precipitação Vento Pressão Humidade
00:00 +28°C° 0 mm 3 m/s 753 mmHg 80%
01:00 +27°C° 0 mm 3 m/s 752 mmHg 82%
02:00 +27°C° 0 mm 2 m/s 752 mmHg 84%
03:00 +27°C° 0 mm 2 m/s 752 mmHg 86%
04:00 +26°C° 0 mm 2 m/s 752 mmHg 87%
05:00 +26°C° 0 mm 1 m/s 753 mmHg 87%
06:00 +26°C° 0 mm 1 m/s 753 mmHg 88%
07:00 +28°C° 0 mm 2 m/s 753 mmHg 79%
08:00 +30°C° 0 mm 2 m/s 754 mmHg 71%
09:00 +31°C° 0 mm 3 m/s 754 mmHg 62%
10:00 +33°C° 0 mm 3 m/s 754 mmHg 60%
11:00 +33°C° 0 mm 3 m/s 753 mmHg 58%
12:00 +34°C° 0 mm 3 m/s 753 mmHg 56%
13:00 +34°C° 0.1 mm 3 m/s 753 mmHg 56%
14:00 +34°C° 0.1 mm 3 m/s 752 mmHg 56%
15:00 +34°C° 0.1 mm 3 m/s 751 mmHg 56%
16:00 +31°C° 1.2 mm 3 m/s 752 mmHg 65%
17:00 +30°C° 1.2 mm 3 m/s 752 mmHg 74%
18:00 +28°C° 1.2 mm 3 m/s 752 mmHg 82%
19:00 +27°C° 8.1 mm 3 m/s 752 mmHg 87%
20:00 +26°C° 8.1 mm 3 m/s 753 mmHg 92%
21:00 +26°C° 8.1 mm 2 m/s 753 mmHg 97%
22:00 +26°C° 3.8 mm 3 m/s 753 mmHg 96%
23:00 +26°C° 3.8 mm 3 m/s 753 mmHg 96%

18 Junho, Sexta-feira

Tempo Temperatura Precipitação Vento Pressão Humidade
00:00 +26°C° 3.8 mm 3 m/s 753 mmHg 96%
01:00 +26°C° 0.1 mm 2 m/s 753 mmHg 96%
02:00 +26°C° 0.1 mm 2 m/s 753 mmHg 96%
03:00 +26°C° 0.1 mm 1 m/s 753 mmHg 95%
04:00 +26°C° 0.2 mm 1 m/s 753 mmHg 95%
05:00 +26°C° 0.2 mm 1 m/s 753 mmHg 95%
06:00 +26°C° 0.2 mm 1 m/s 754 mmHg 95%
07:00 +27°C° 0 mm 1 m/s 754 mmHg 91%
08:00 +27°C° 0 mm 2 m/s 754 mmHg 86%
09:00 +28°C° 0 mm 2 m/s 754 mmHg 82%
10:00 +29°C° 0 mm 2 m/s 754 mmHg 76%
11:00 +30°C° 0 mm 2 m/s 754 mmHg 69%
12:00 +32°C° 0 mm 2 m/s 753 mmHg 63%
13:00 +32°C° 0.1 mm 2 m/s 753 mmHg 63%
14:00 +32°C° 0.1 mm 2 m/s 752 mmHg 63%
15:00 +32°C° 0.1 mm 2 m/s 752 mmHg 63%
16:00 +30°C° 0.2 mm 3 m/s 752 mmHg 69%
17:00 +29°C° 0.2 mm 3 m/s 752 mmHg 76%
18:00 +28°C° 0.2 mm 3 m/s 752 mmHg 83%
19:00 +27°C° 0 mm 3 m/s 753 mmHg 85%
20:00 +27°C° 0 mm 3 m/s 753 mmHg 86%
21:00 +27°C° 0 mm 3 m/s 754 mmHg 88%
22:00 +26°C° 0 mm 2 m/s 753 mmHg 89%
23:00 +26°C° 0 mm 2 m/s 753 mmHg 90%

19 Junho, Sábado

Tempo Temperatura Precipitação Vento Pressão Humidade
00:00 +26°C° 0 mm 2 m/s 753 mmHg 91%
01:00 +26°C° 0.1 mm 2 m/s 753 mmHg 92%
02:00 +26°C° 0.1 mm 1 m/s 753 mmHg 94%
03:00 +25°C° 0.1 mm 1 m/s 752 mmHg 95%
04:00 +25°C° 0.2 mm 1 m/s 753 mmHg 95%
05:00 +25°C° 0.2 mm 1 m/s 753 mmHg 95%
06:00 +25°C° 0.2 mm 1 m/s 753 mmHg 95%
07:00 +27°C° 0.5 mm 1 m/s 754 mmHg 89%
08:00 +28°C° 0.5 mm 1 m/s 754 mmHg 83%
09:00 +29°C° 0.5 mm 1 m/s 754 mmHg 76%
10:00 +29°C° 1.9 mm 1 m/s 754 mmHg 81%
11:00 +28°C° 1.9 mm 1 m/s 754 mmHg 85%
12:00 +27°C° 1.9 mm 2 m/s 753 mmHg 89%
13:00 +27°C° 0 mm 2 m/s 753 mmHg 87%
14:00 +28°C° 0 mm 3 m/s 753 mmHg 85%
15:00 +28°C° 0 mm 3 m/s 752 mmHg 83%
16:00 +27°C° 0 mm 3 m/s 753 mmHg 84%
17:00 +27°C° 0 mm 2 m/s 753 mmHg 84%
18:00 +27°C° 0 mm 2 m/s 753 mmHg 85%
19:00 +27°C° 0 mm 2 m/s 753 mmHg 86%
20:00 +27°C° 0 mm 3 m/s 753 mmHg 86%
21:00 +26°C° 0 mm 3 m/s 754 mmHg 87%
22:00 +26°C° 0 mm 2 m/s 754 mmHg 89%
23:00 +26°C° 0 mm 1 m/s 754 mmHg 90%
Mostrar mais